Location: Asheville, NC
(35.6000°N, 82.5500°W)
Time: 03:02:23
(UTC-05:00)

Vanguard 1 Rocket - Pass Details

Date: 13 December 2017
Orbit: 656 x 4222 km, 34.3° (Epoch: 21 January)

Event Time Altitude Azimuth Distance (km) Brightness Sun altitude
Rises 23:24:50 0° 286° (WNW) 6,728 12.1 -72.1°
Reaches altitude 10° 23:28:46 10° 282° (WNW) 6,086 11.7 -72.7°
Enters shadow 23:35:58 30° 272° (W) 5,153 11.1 -73.7°
Exits shadow 00:18:07 - 138° (SE) 7,593 12.0 -77.5°
Sets 00:19:04 0° 137° (SE) 7,731 12.0 -77.5°
